sat.trackr.live / text

‹ back to catalog

STARLINK-37167

NORAD 68732 · 2026-082E

PAYLOAD ACTIVE UNKNOWN

§ Identity

Operator
Country
US
Launch date
2026-04-15
Launch site
AFWTR
Launch vehicle
Mass (kg)
RCS (m²)

Purposes: comms

External: N2YO · Heavens-Above · Gunter

§ Orbital elements

Epoch: 2026-09-19T20:43:44.035104Z

Period
93.91 min
Inclination
97.2848°
Eccentricity
0.0002081
Mean motion
15.33444848 rev/d
Perigee alt
464.1 km
Apogee alt
467.0 km
Semi-major
6,843.7 km
B*
4.1371e-4
RAAN
124.9570°
Arg perigee
89.9787°
Mean anomaly
270.1695°
Rev number
2,420

§ Raw data

STARLINK-371671 68732U 26082E   26262.86370411  .00013305  00000+0  41371-3 0  99922 68732  97.2848 124.9570 0002081  89.9787 270.1695 15.33444848 24205

JSON: /api/v1/satellites/68732 · /tle

For live sub-satellite position, see the globe view (requires WebGL).

§ Visibility from observer

Set your observer location to see the next 7 days of passes ≥ 10°. The values pass through the URL so the page stays shareable.

No JS? Fill the form by hand. The geolocation button needs JavaScript.